| time (UTC) | temp F | wind direction | speed knots | gust knots | rain 1hr in | rain 24hr in | rain mn in | humidity % | barometer mb |
| 20260505124602 | 35 | 0 | 0.0 | 0.0 | 0.00 | 0.00 | 0.00 | 85 | 1012.5 |
| 20260505123110 | 35 | 0 | 0.0 | 0.0 | 0.00 | 0.00 | 0.00 | 85 | 1012.5 |
| 20260505121600 | 35 | 0 | 0.0 | 0.0 | 0.00 | 0.00 | 0.00 | 84 | 1012.5 |
| 20260505024601 | 59 | 286 | 2.6 | 6.1 | 0.00 | 0.00 | 0.00 | 18 | 1011.2 |
| 20260505023059 | 60 | 297 | 2.6 | 11.3 | 0.00 | 0.00 | 0.00 | 19 | 1011.1 |
| 20260505021557 | 60 | 308 | 2.6 | 10.4 | 0.00 | 0.00 | 0.00 | 19 | 1010.8 |
| 20260505014610 | 61 | 270 | 3.5 | 10.4 | 0.00 | 0.00 | 0.00 | 18 | 1010.0 |
| 20260505013059 | 62 | 293 | 3.5 | 13.0 | 0.00 | 0.00 | 0.00 | 19 | 1010.0 |
| 20260505011601 | 62 | 253 | 3.5 | 9.6 | 0.00 | 0.00 | 0.00 | 19 | 1009.5 |
| 20260505010104 | 63 | 323 | 1.7 | 9.6 | 0.00 | 0.00 | 0.00 | 19 | 1009.4 |
| 20260505004559 | 63 | 288 | 2.6 | 10.4 | 0.00 | 0.00 | 0.00 | 19 | 1009.6 |
| 20260505003106 | 64 | 339 | 1.7 | 8.7 | 0.00 | 0.00 | 0.00 | 20 | 1009.5 |
| 20260505001601 | 64 | 229 | 2.6 | 8.7 | 0.00 | 0.00 | 0.00 | 19 | 1009.6 |
| 20260504234558 | 65 | 336 | 2.6 | 11.3 | 0.00 | 0.00 | 0.00 | 20 | 1009.4 |
| 20260504233100 | 66 | 265 | 3.5 | 11.3 | 0.00 | 0.00 | 0.00 | 20 | 1009.5 |
| 20260504231559 | 67 | 0 | 1.7 | 15.6 | 0.00 | 0.00 | 0.00 | 20 | 1009.3 |
| 20260504230057 | 68 | 243 | 0.9 | 10.4 | 0.00 | 0.00 | 0.00 | 21 | 1009.3 |
| 20260504224558 | 68 | 0 | 2.6 | 11.3 | 0.00 | 0.00 | 0.00 | 22 | 1009.2 |
| 20260504223122 | 69 | 240 | 3.5 | 11.3 | 0.00 | 0.00 | 0.00 | 20 | 1009.4 |
| 20260504221603 | 69 | 288 | 3.5 | 10.4 | 0.00 | 0.00 | 0.00 | 21 | 1009.5 |
| 20260504214558 | 70 | 308 | 3.5 | 10.4 | 0.00 | 0.00 | 0.00 | 21 | 1010.1 |
| 20260504213105 | 69 | 265 | 2.6 | 10.4 | 0.00 | 0.00 | 0.00 | 21 | 1010.4 |
| 20260504211644 | 69 | 319 | 1.7 | 7.0 | 0.00 | 0.00 | 0.00 | 21 | 1010.6 |
| 20260504210055 | 67 | 290 | 2.6 | 9.6 | 0.00 | 0.00 | 0.00 | 21 | 1011.0 |
| 20260504204556 | 67 | 345 | 2.6 | 8.7 | 0.00 | 0.00 | 0.00 | 21 | 1011.5 |
| 20260504203107 | 67 | 0 | 1.7 | 9.6 | 0.00 | 0.00 | 0.00 | 22 | 1011.7 |
| 20260504201612 | 66 | 257 | 3.5 | 13.0 | 0.00 | 0.00 | 0.00 | 22 | 1011.8 |
| 20260504200055 | 66 | 304 | 6.1 | 14.8 | 0.00 | 0.00 | 0.00 | 23 | 1012.2 |
| 20260504194557 | 66 | 283 | 1.7 | 11.3 | 0.00 | 0.00 | 0.00 | 23 | 1012.3 |
| 20260504193105 | 65 | 320 | 4.3 | 10.4 | 0.00 | 0.00 | 0.00 | 25 | 1012.3 |
| 20260504191611 | 65 | 290 | 4.3 | 11.3 | 0.00 | 0.00 | 0.00 | 26 | 1012.2 |
| 20260504190107 | 65 | 293 | 4.3 | 11.3 | 0.00 | 0.00 | 0.00 | 28 | 1012.3 |
| 20260504184557 | 65 | 266 | 2.6 | 9.6 | 0.00 | 0.00 | 0.00 | 29 | 1012.5 |
| 20260504183055 | 64 | 298 | 4.3 | 15.6 | 0.00 | 0.00 | 0.00 | 28 | 1012.9 |
| 20260504181603 | 63 | 307 | 5.2 | 15.6 | 0.00 | 0.00 | 0.00 | 30 | 1012.9 |
| 20260504180059 | 63 | 293 | 3.5 | 17.4 | 0.00 | 0.00 | 0.00 | 32 | 1013.2 |
| 20260504174556 | 63 | 269 | 3.5 | 13.9 | 0.00 | 0.00 | 0.00 | 31 | 1013.3 |
| 20260504173059 | 62 | 360 | 2.6 | 11.3 | 0.00 | 0.00 | 0.00 | 32 | 1013.4 |
| 20260504171558 | 62 | 0 | 3.5 | 11.3 | 0.00 | 0.00 | 0.00 | 33 | 1013.6 |